OPS 4682 DEB, 38436

Orbit data source: Space-Track

OPS 4682 DEB, 38436 is space debris in LEO originally from a launch on Sat, 03 Apr 1965 UTC launched from the Air Force Western Test Range (AFWTR). Debris objects in space refer to the collection of defunct objects orbiting the Earth. Examples of debris include non-operational satellites, rocket bodies, and fragments generated from explosions, collisions, or faulty payload assembly.

Loading next visibility...
Identifier
38436, 1965-027ER
Orbit
LEO
Country
Flag of USUS
Related business
Manufacturer
Unknown
Mission
Spacecraft
Bus & Motor
Unknown
Mass
Unknown
Launch date (UTC)
1965-04-03 (61 years ago)
Launch vehicle
Unknown
Launch site
Air Force Western Test Range (AFWTR)
Object type
Payload
Rocket body
Debris
Shape & HBR
Unknown shape, 0.1 m
Radar Cross Section
Small (<0.1 m²)

Expand to show TLE details & history
Last TLE update: 2 days ago

TLE from 2 days ago
0 OPS 4682 DEB
1 38436U 65027ER  25301.87124486 -.00000229  00000-0 -78614-3 0  9999
2 38436  90.2454 357.7077 0027060 184.0041 176.0868 12.99822709585372
Epoch: 2025-10-28T20:54Z
TLE epoch observation values (Epoch: 2025-10-28T20:54:35.555Z)
Latitude
-0.0001°
Longitude
6.60704°
Altitude
1,286.297 km
Speed
7.203 km/s
True Right ascension
23h 50m 49s
True Declination
0° 00' 00"
Sunlit
Object was in full shadow at epoch
Visualization orbit readout
Latitude
Unknown
Longitude
Unknown
Altitude
Unknown
Speed
Unknown
Apparent Right ascension
Unknown
Apparent Declination
Unknown
Sunlit
N/A
Visualization observer readout
Local Sidereal Time
08:31:49
Azimuth
Unknown
Elevation
Unknown
Doppler factor
Unknown
Orbital elements
Apogee altitude
1,280.577 km
Perigee altitude
1,239.24 km
Semi-major axis
7,638.046 km
Eccentricity
0.00271
Inclination
90.2454°
RAAN
357.7077°
Arg. of periapsis
184.0041°
True anomaly
176.10789°
Mean anomaly
176.0868°
Eccentric anomaly
176.09735°
Mean motion
3.2514 °/min
Orbital period
110.72 mins
BSTAR
-0.00078614
Loading maneuver chart data...
Computing Atmospheric mass density...
Loading historical data...
Loading historical data...
Loading historical data...
Loading historical data...
Loading historical data...
Loading historical data...
Loading historical data...

Documentation

Showing up to 5 results
|